User: anonymous   Login
Location: Albany
(35.0000°S, 118.0000°E)
Time: 03:27:38
(UTC-05:00)
Language:

ERS-1 Rocket - Orbit

View from above orbital plane
View from above orbital plane
View from above satellite
View from above satellite

Ground track
Ground track

The orbit data is extracted from the following two-line orbital elements,

1 21610U 91050F   17020.18563299 -.00000023  00000-0  69226-5 0  9994
2 21610  98.6272  75.6805 0003693  42.7748  23.4702 14.40779343338802
Epoch (UTC): 20 January 2017 04:27:18
Eccentricity: 0.0003693
inclination: 98.6272°
perigee height: 753 km
apogee height: 758 km
right ascension of ascending node: 75.6805°
argument of perigee: 42.7748°
revolutions per day: 14.40779343
mean anomaly at epoch: 23.4702°
orbit number at epoch: 33880

The dashed part of the orbit path shows where the satellite is in the earth's shadow,  

DLR